Benson, MN

6:12 PM CDT on April 25, 2017 (GMT -0500)
Benson Municipal

Weather History for KBBB - February, 2013

Change the Weather History Date:

Wednesday, February 27, 2013

  Actual Average Record
Temperature  
Mean Temperature 16 °F -  
Max Temperature 23 °F 33 °F 60 °F (2016)
Min Temperature 10 °F 17 °F -21 °F (1962)
Degree Days  
Heating Degree Days 48    
Moisture  
Dew Point 15 °F    
Average Humidity 90    
Maximum Humidity 100    
Minimum Humidity 79    
Precipitation  
Precipitation 0.00 in - - ()
Sea Level Pressure  
Sea Level Pressure 30.02 in    
Wind  
Wind Speed 11 mph (North)    
Max Wind Speed 23 mph    
Max Gust Speed 29 mph    
Visibility 9 miles    
Events      
Averages and records for this station are not official NWS values.
T = Trace of Precipitation, MM = Missing Value Source: NWS Daily Summary

Daily Weather History Graph

Daily Weather History Graph

Search for Another Location

Airport or City:

Trip Planner

Search our weather history database for the weather conditions in past years. The results will help you decide how hot, cold, wet, or windy it might be!

Date:

Astronomy

Feb. 27, 2013 Rise Set
Actual Time 7:03 AM CST 6:07 PM CST
Civil Twilight 6:34 AM CST 6:37 PM CST
Nautical Twilight 5:59 AM CST 7:11 PM CST
Astronomical Twilight 5:25 AM CST 7:45 PM CST
Moon 8:39 PM CST (2/27) 7:31 AM CST (2/27)
Length of Visible Light 12h 03m
Length of Day
11h 03m
Waning Gibbous, 96% of the Moon is Illuminated
Feb 27
Waning Gibbous
Mar 4
Last Quarter
Mar 11
New
Mar 19
First Quarter
Mar 27
Full

Hourly Weather History & Observations

Time (CST) Temp. Windchill Dew Point Humidity Pressure Visibility Wind Dir Wind Speed Gust Speed Precip Events Conditions
12:13 AM 15.8 °F 6.1 °F 12.2 °F 86% 29.97 in 7.0 mi North 6.9 mph - N/A   Clear
12:32 AM 15.8 °F 4.2 °F 12.2 °F 86% 29.97 in 7.0 mi North 9.2 mph - N/A   Clear
12:53 AM 14.0 °F 3.9 °F 12.2 °F 93% 29.98 in 7.0 mi North 6.9 mph - N/A   Clear
1:13 AM 14.0 °F 5.1 °F 12.2 °F 93% 29.98 in 5.0 mi North 5.8 mph - N/A   Scattered Clouds
1:32 AM 14.0 °F 3.9 °F 12.2 °F 93% 29.97 in 4.0 mi North 6.9 mph - N/A   Mostly Cloudy
1:53 AM 15.8 °F 4.2 °F 12.2 °F 86% 29.97 in 5.0 mi North 9.2 mph - N/A   Scattered Clouds
2:12 AM 15.8 °F 6.1 °F 12.2 °F 86% 29.98 in 7.0 mi North 6.9 mph - N/A   Clear
2:32 AM 14.0 °F 5.1 °F 12.2 °F 93% 29.98 in 7.0 mi North 5.8 mph - N/A   Clear
2:53 AM 14.0 °F 2.9 °F 12.2 °F 93% 29.97 in 7.0 mi North 8.1 mph - N/A   Clear
3:12 AM 14.0 °F 2.9 °F 12.2 °F 93% 29.96 in 7.0 mi North 8.1 mph - N/A   Clear
3:33 AM 14.0 °F 5.1 °F 12.2 °F 93% 29.97 in 10.0 mi North 5.8 mph - N/A   Clear
3:53 AM 14.0 °F 2.9 °F 12.2 °F 93% 29.97 in 10.0 mi North 8.1 mph - N/A   Clear
4:12 AM 14.0 °F 2.9 °F 12.2 °F 93% 29.97 in 10.0 mi North 8.1 mph - N/A   Clear
4:33 AM 14.0 °F 2.0 °F 12.2 °F 93% 29.97 in 10.0 mi North 9.2 mph - N/A   Clear
4:53 AM 12.2 °F 0.7 °F 10.4 °F 92% 29.97 in 10.0 mi North 8.1 mph - N/A   Clear
5:12 AM 12.2 °F -0.2 °F 10.4 °F 92% 29.97 in 10.0 mi North 9.2 mph - N/A   Clear
5:33 AM 12.2 °F 0.7 °F 10.4 °F 92% 29.97 in 10.0 mi NNE 8.1 mph - N/A   Clear
5:53 AM 12.2 °F 0.7 °F 10.4 °F 92% 29.98 in 10.0 mi North 8.1 mph - N/A   Clear
6:12 AM 12.2 °F 1.7 °F 10.4 °F 92% 29.99 in 10.0 mi North 6.9 mph - N/A   Clear
6:33 AM 10.4 °F -2.4 °F 10.4 °F 100% 29.99 in 10.0 mi North 9.2 mph - N/A   Clear
6:52 AM 10.4 °F -1.5 °F 8.6 °F 92% 29.99 in 10.0 mi North 8.1 mph - N/A   Clear
7:12 AM 10.4 °F -0.4 °F 8.6 °F 92% 30.00 in 10.0 mi North 6.9 mph - N/A   Clear
7:33 AM 10.4 °F -0.4 °F 8.6 °F 92% 30.00 in 10.0 mi North 6.9 mph - N/A   Clear
7:52 AM 12.2 °F -0.2 °F 10.4 °F 92% 30.01 in 10.0 mi North 9.2 mph - N/A   Clear
8:12 AM 12.2 °F -0.2 °F 10.4 °F 92% 30.02 in 10.0 mi North 9.2 mph - N/A   Clear
8:33 AM 12.2 °F 1.7 °F 10.4 °F 92% 30.02 in 10.0 mi North 6.9 mph - N/A   Clear
8:52 AM 12.2 °F -1.8 °F 10.4 °F 92% 30.02 in 10.0 mi North 11.5 mph - N/A   Clear
9:13 AM 14.0 °F 2.9 °F 10.4 °F 86% 30.02 in 10.0 mi North 8.1 mph - N/A   Clear
9:33 AM 15.8 °F 2.7 °F 12.2 °F 86% 30.03 in 10.0 mi North 11.5 mph - N/A   Clear
9:52 AM 17.6 °F 5.7 °F 12.2 °F 79% 30.03 in 10.0 mi North 10.4 mph - N/A   Clear
10:13 AM 17.6 °F 5.7 °F 12.2 °F 79% 30.03 in 10.0 mi North 10.4 mph - N/A   Clear
10:33 AM 17.6 °F 3.7 °F 12.2 °F 79% 30.03 in 10.0 mi North 13.8 mph - N/A   Clear
10:52 AM 17.6 °F 5.0 °F 12.2 °F 79% 30.03 in 10.0 mi North 11.5 mph - N/A   Clear
11:13 AM 17.6 °F 3.2 °F 12.2 °F 79% 30.03 in 10.0 mi North 15.0 mph - N/A   Clear
11:32 AM 17.6 °F 3.2 °F 12.2 °F 79% 30.03 in 10.0 mi North 15.0 mph - N/A   Clear
11:52 AM 19.4 °F 5.0 °F 14.0 °F 80% 30.03 in 10.0 mi North 16.1 mph - N/A   Clear
12:13 PM 19.4 °F 4.1 °F 15.8 °F 86% 30.03 in 10.0 mi North 18.4 mph - N/A   Clear
12:32 PM 19.4 °F 5.0 °F 15.8 °F 86% 30.03 in 10.0 mi North 16.1 mph - N/A   Clear
12:53 PM 21.2 °F 6.8 °F 15.8 °F 80% 30.02 in 10.0 mi North 17.3 mph 24.2 mph N/A   Clear
1:13 PM 21.2 °F 6.4 °F 17.6 °F 86% 30.02 in 7.0 mi North 18.4 mph - N/A   Clear
1:32 PM 21.2 °F 4.9 °F 17.6 °F 86% 30.01 in 7.0 mi North 23.0 mph - N/A   Clear
1:53 PM 21.2 °F 6.0 °F 17.6 °F 86% 30.01 in 7.0 mi North 19.6 mph - N/A   Clear
2:13 PM 23.0 °F 7.6 °F 19.4 °F 86% 30.01 in 7.0 mi North 21.9 mph 27.6 mph N/A   Clear
2:32 PM 23.0 °F 7.2 °F 19.4 °F 86% 30.02 in 7.0 mi North 23.0 mph 27.6 mph N/A   Clear
2:53 PM 21.2 °F 6.0 °F 17.6 °F 86% 30.02 in 5.0 mi North 19.6 mph - N/A   Clear
3:12 PM 21.2 °F 4.9 °F 17.6 °F 86% 30.02 in 5.0 mi North 23.0 mph 28.8 mph N/A   Clear
3:32 PM 21.2 °F 5.2 °F 19.4 °F 93% 30.01 in 5.0 mi North 21.9 mph 28.8 mph N/A   Scattered Clouds
3:53 PM 23.0 °F 7.2 °F 19.4 °F 86% 30.01 in 5.0 mi North 23.0 mph 26.5 mph N/A   Scattered Clouds
4:12 PM 21.2 °F 5.6 °F 19.4 °F 93% 30.02 in 5.0 mi North 20.7 mph 28.8 mph N/A   Scattered Clouds
4:32 PM 21.2 °F 6.4 °F 19.4 °F 93% 30.03 in 7.0 mi North 18.4 mph 28.8 mph N/A   Mostly Cloudy
4:53 PM 21.2 °F 5.6 °F 19.4 °F 93% 30.03 in 7.0 mi North 20.7 mph 25.3 mph N/A   Scattered Clouds
5:13 PM 21.2 °F 5.6 °F 19.4 °F 93% 30.03 in 7.0 mi North 20.7 mph 26.5 mph N/A   Scattered Clouds
5:32 PM 21.2 °F 5.6 °F 19.4 °F 93% 30.03 in 7.0 mi North 20.7 mph 28.8 mph N/A   Scattered Clouds
5:53 PM 21.2 °F 6.4 °F 19.4 °F 93% 30.03 in 7.0 mi North 18.4 mph 25.3 mph N/A   Scattered Clouds
6:12 PM 21.2 °F 6.8 °F 19.4 °F 93% 30.03 in 7.0 mi North 17.3 mph 26.5 mph N/A   Mostly Cloudy
6:32 PM 23.0 °F 9.6 °F 21.2 °F 93% 30.05 in 7.0 mi North 16.1 mph 23.0 mph N/A   Overcast
6:53 PM 23.0 °F 9.2 °F 21.2 °F 93% 30.05 in 10.0 mi North 17.3 mph 27.6 mph N/A   Overcast
7:12 PM 23.0 °F 8.3 °F 21.2 °F 93% 30.05 in 7.0 mi North 19.6 mph 26.5 mph N/A   Overcast
7:33 PM 23.0 °F 8.3 °F 21.2 °F 93% 30.06 in 10.0 mi North 19.6 mph 27.6 mph N/A   Overcast
8:12 PM 21.2 °F 7.8 °F 19.4 °F 93% 30.06 in 10.0 mi North 15.0 mph 18.4 mph N/A   Scattered Clouds
8:33 PM 21.2 °F 6.4 °F 17.6 °F 86% 30.06 in 10.0 mi North 18.4 mph - N/A   Clear
8:53 PM 19.4 °F 4.5 °F 17.6 °F 93% 30.06 in 10.0 mi North 17.3 mph 23.0 mph N/A   Clear
9:12 PM 19.4 °F 4.5 °F 17.6 °F 93% 30.07 in 10.0 mi North 17.3 mph 23.0 mph N/A   Clear
9:33 PM 19.4 °F 4.1 °F 17.6 °F 93% 30.08 in 10.0 mi North 18.4 mph 23.0 mph N/A   Clear
9:53 PM 21.2 °F 7.3 °F 17.6 °F 86% 30.08 in 10.0 mi North 16.1 mph - N/A   Clear
10:12 PM 21.2 °F 7.8 °F 17.6 °F 86% 30.08 in 10.0 mi North 15.0 mph - N/A   Clear
10:33 PM 21.2 °F 8.3 °F 19.4 °F 93% 30.09 in 10.0 mi North 13.8 mph - N/A   Clear
10:53 PM 21.2 °F 8.3 °F 19.4 °F 93% 30.09 in 10.0 mi North 13.8 mph - N/A   Clear
11:12 PM 19.4 °F 6.6 °F 19.4 °F 100% 30.09 in 10.0 mi North 12.7 mph - N/A   Clear
11:33 PM 19.4 °F 6.6 °F 17.6 °F 93% 30.09 in 10.0 mi North 12.7 mph 18.4 mph N/A   Clear
11:53 PM 19.4 °F 6.6 °F 17.6 °F 93% 30.10 in 10.0 mi North 12.7 mph - N/A   Clear